Location: Unspecified
(0.0000°N, 0.0000°E)
Time: 06:46:44
(UTC+00:00)

Vanguard 2 Rocket - Pass Details

Date: 08 October 2023
Orbit: 552 x 3312 km, 32.9° (Epoch: 06 December)

Event Time Altitude Azimuth Distance (km) Brightness Sun altitude
Rises 03:30:55 0° 221° (SW) 2,814 - -34.0°
Reaches altitude 10° 03:32:58 10° 214° (SSW) 2,025 - -33.5°
Maximum altitude 03:37:17 44° 141° (SE) 1,104 - -32.4°
Exits shadow 03:37:22 43° 138° (SE) 1,110 7.5 -32.4°
Drops below altitude 10° 03:43:49 10° 70° (ENE) 3,069 10.3 -30.8°
Sets 03:47:36 0° 65° (ENE) 4,481 11.3 -29.9°
